Home   Weather   Hartford   Past weeks
Flag for USA

Past Weather in Hartford, Connecticut, USA — Yesterday and Last 2 Weeks

Now
48 °F

Sunny.


Feels Like: 46 °F
Forecast: 46 / 23 °F
Wind: 5 mph from West

Location: Hartford-Brainard Airport

Current Time: Feb 22, 2020 at 5:15:18 pm

Latest Report: Feb 22, 2020 at 3:53 pm


Visibility: 10 mi

Pressure: 30.11 "Hg

Humidity: 21%

Dew Point: 10 °F

Location of HartfordLocation

Past Weather in Hartford — Graph

°F

Hartford Temperature Yesterday

Maximum temperature yesterday: 33 °F (at 3:53 pm)
Minimum temperature yesterday: 17 °F (at 5:53 am)
Average temperature yesterday: 25 °F

High & Low Weather Summary for the Past Weeks

 TemperatureHumidityPressure
High48 °F (Feb 17, 1:53 pm)100% (Feb 13, 7:34 am)30.67 "Hg (Feb 13, 7:34 am)
Low10 °F (Feb 15, 4:53 am)20% (Feb 21, 4:53 pm)28.99 "Hg (Feb 7, 3:35 pm)
Average34 °F65%30.15 "Hg
* Reported Feb 7 3:35 pm — Feb 22 3:53 pm, Hartford. Weather by CustomWeather, © 2020

Note: Actual official high and low records may vary slightly from our data, if they occured in-between our weather recording intervals... More about our weather records

Hartford Weather History for the Previous 24 Hours

Scroll right to see more
 ConditionsComfort  
Time TempWeatherWind HumidityBarometerVisibility
3:53 pm
Sat, Feb 22
48 °FSunny.5 mph21%30.11 "Hg10 mi
2:53 pm48 °FSunny.8 mph20%30.12 "Hg10 mi
1:53 pm46 °FSunny.8 mph22%30.12 "Hg10 mi
12:53 pm45 °FSunny.8 mph22%30.15 "Hg10 mi
11:53 am42 °FSunny.7 mph24%30.19 "Hg10 mi
10:53 am39 °FSunny.5 mph29%30.22 "Hg10 mi
9:53 am36 °FSunny.8 mph32%30.24 "Hg10 mi
8:53 am32 °FSunny.5 mph41%30.25 "Hg10 mi
7:53 am28 °FSunny.6 mph53%30.25 "Hg10 mi
5:53 am25 °FClear.5 mph53%30.23 "Hg10 mi
4:53 am26 °FClear.5 mph46%30.23 "Hg10 mi
3:53 am27 °FClear.5 mph46%30.22 "Hg10 mi
2:53 am28 °FClear.5 mph41%30.23 "Hg10 mi
1:53 am27 °FClear.7 mph42%30.25 "Hg10 mi
12:53 am26 °FClear.6 mph46%30.27 "Hg10 mi
11:53 pm
Fri, Feb 21
26 °FClear.6 mph44%30.29 "Hg10 mi
10:53 pm27 °FClear.8 mph42%30.31 "Hg10 mi
9:53 pm26 °FClear.6 mph44%30.34 "Hg10 mi
8:53 pm27 °FClear.6 mph41%30.35 "Hg10 mi
7:53 pm29 °FClear.5 mph31%30.37 "Hg10 mi
6:53 pm30 °FClear.5 mph29%30.38 "Hg10 mi
5:53 pm32 °FClear.5 mph23%30.38 "Hg10 mi
Weather by CustomWeather, © 2020

See weather overview

Advertising